Regional Weather Roundup
Issued by NWS

Home | Current Version | Previous Version | Graphics & Text | Print | Product List | Glossary On
Versions: 1 2 3 4 5 6 7 8 9 10 11 12 13 14 15 16 17 18 19 20 21 22 23 24 25 26 27 28 29 30 31 32 33 34 35 36 37 38 39 40 41 42 43 44 45 46 47 48 49 50
000
ASUS43 KTOP 220459
RWRKS

WEATHER ROUNDUP FOR KANSAS
NATIONAL WEATHER SERVICE GOODLAND KS
1200 AM CDT FRI SEP 22 2017

NOTE:  "FAIR" INDICATES FEW OR NO CLOUDS BELOW 12,000 FEET WITH NO
SIGNIFICANT WEATHER AND/OR OBSTRUCTIONS TO VISIBILITY.

KSZ001>006-013>018-027>032-041>047-220600-
NORTHWEST KANSAS

CITY           SKY/WX    TMP DP  RH WIND       PRES   REMARKS
GOODLAND       CLEAR     72  42  34 S16       29.71R
HAYS           CLEAR     83  69  62 S23G32    29.75R
HILL CITY      CLEAR     84  68  58 S25G33    29.73R
RUSSELL        CLEAR     83  68  60 S24G32    29.76R
$$

KSZ061>065-074>080-084>089-220600-
SOUTHWEST KANSAS

CITY           SKY/WX    TMP DP  RH WIND       PRES   REMARKS
DODGE CITY     CLEAR     80  68  66 S25G37    29.80R
ELKHART          N/A     67  48  50 S9          N/A
GARDEN CITY    CLEAR     79  64  60 S23G38    29.77S
GREAT BEND     CLEAR     82  69  64 S23G32    29.80R
LIBERAL        CLEAR     78  62  57 S23       29.80S
$$

KSZ066>073-081>083-090>101-220600-
SOUTHEAST KANSAS

CITY           SKY/WX    TMP DP  RH WIND       PRES   REMARKS
CHANUTE        CLEAR     79  70  74 S14       29.92R
COFFEYVILLE    CLEAR     77  70  79 S9        29.91R
HUTCHINSON     CLEAR     81  71  71 S20G26    29.83S
MEDICINE LODGE   N/A     81  69  67 S15G24    29.83R
NEWTON         CLEAR     80  70  71 S20G25    29.86S
WICHITA INTL   CLEAR     81  71  71 S17G25    29.86R
WICHITA JABRA  CLEAR     80  71  74 S18G25    29.86S
WINFIELD       CLEAR     80  70  71 S16       29.89R
$$

KSZ007>012-019>026-033>040-048>060-102>105-220600-
NORTHEAST KANSAS

CITY           SKY/WX    TMP DP  RH WIND       PRES   REMARKS
CONCORDIA      CLEAR     81  73  76 S20G25    29.79R
EMPORIA        CLEAR     79  70  74 S20       29.88R
LAWRENCE       CLEAR     80  72  76 SE10      29.89R
MANHATTAN      CLEAR     83  71  67 S16G25    29.82R
OLATHE IND     CLEAR     79  71  76 S14       29.92R
OLATHE EXE     CLEAR     77  72  84 S10       29.92R
SALINA         CLEAR     85  71  63 S18G33    29.80R
TOPEKA BILLARD CLEAR     81  73  76 S15       29.86R
TOPEKA FORBES  CLEAR     80  73  79 S12       29.88R
$$



USA.gov is the U.S. government's official web portal to all federal, state and local government web resources and services.